VJT402 EBBR-EGLL

Flight info

Callsign VJT402
Flight time 0h 44m
Altitude 24000
Route HELEN L179 COA L608 LOGAN
Aircraft CL60/M-ICAO/HB1D1

Departure

Time 2026-05-06 21:05
Airport Brussels Airport (EBBR)

Arrival

Time 2026-05-06 21:49
Airport London Heathrow Airport (EGLL)
Time Latitude Longitude Altitude Speed Heading
2026-05-06 20:47 50.89951 4.46967 118 ft 0 kts 156°
2026-05-06 21:01 50.89948 4.46967 118 ft 4 kts 181°
2026-05-06 21:01 50.89996 4.46895 116 ft 15 kts 313°
2026-05-06 21:02 50.89998 4.46804 116 ft 5 kts 235°
2026-05-06 21:02 50.89975 4.46750 118 ft 7 kts 237°
2026-05-06 21:02 50.89951 4.46675 120 ft 8 kts 245°
2026-05-06 21:02 50.89954 4.46558 120 ft 17 kts 311°
2026-05-06 21:03 50.89945 4.46363 120 ft 20 kts 244°
2026-05-06 21:03 50.89878 4.46147 121 ft 22 kts 246°
2026-05-06 21:03 50.89812 4.45907 122 ft 24 kts 245°
2026-05-06 21:03 50.89775 4.45700 122 ft 16 kts 300°
2026-05-06 21:04 50.89901 4.45687 122 ft 22 kts 34°
2026-05-06 21:04 50.89958 4.45801 120 ft 0 kts 64°
2026-05-06 21:04 50.90010 4.45966 119 ft 60 kts 63°
2026-05-06 21:05 50.90343 4.47099 151 ft 155 kts 63°
2026-05-06 21:05 50.90804 4.48713 889 ft 177 kts 65°
2026-05-06 21:05 50.91260 4.50390 2309 ft 168 kts 63°
2026-05-06 21:05 50.91982 4.51700 3523 ft 168 kts 32°
2026-05-06 21:06 50.93095 4.52153 4654 ft 176 kts 359°
2026-05-06 21:06 50.94192 4.51363 5753 ft 187 kts 318°
2026-05-06 21:06 50.94981 4.49744 6888 ft 191 kts 309°
2026-05-06 21:06 50.95745 4.48053 7957 ft 195 kts 309°
2026-05-06 21:07 50.96528 4.46333 8998 ft 199 kts 309°
2026-05-06 21:07 50.97319 4.44598 10004 ft 202 kts 308°
2026-05-06 21:07 50.98133 4.42816 10995 ft 205 kts 308°
2026-05-06 21:07 50.98965 4.40993 11977 ft 208 kts 307°
2026-05-06 21:08 50.99804 4.39159 12924 ft 210 kts 307°
2026-05-06 21:08 51.00652 4.37303 13831 ft 213 kts 307°
2026-05-06 21:08 51.01527 4.35388 14735 ft 216 kts 307°
2026-05-06 21:08 51.02399 4.33482 15586 ft 219 kts 306°
2026-05-06 21:09 51.03298 4.31515 16421 ft 221 kts 306°
2026-05-06 21:09 51.04189 4.29566 17212 ft 224 kts 306°
2026-05-06 21:09 51.05106 4.27559 17981 ft 226 kts 306°
2026-05-06 21:09 51.06030 4.25535 18703 ft 229 kts 306°
2026-05-06 21:10 51.06972 4.23472 19414 ft 231 kts 305°
2026-05-06 21:10 51.07925 4.21385 20095 ft 234 kts 305°
2026-05-06 21:10 51.08888 4.19273 20737 ft 238 kts 305°
2026-05-06 21:10 51.09863 4.17134 21357 ft 241 kts 305°
2026-05-06 21:11 51.10860 4.14945 21965 ft 243 kts 305°
2026-05-06 21:11 51.11850 4.12771 22546 ft 246 kts 305°
2026-05-06 21:11 51.12860 4.10550 23148 ft 247 kts 305°
2026-05-06 21:11 51.13865 4.08338 23702 ft 251 kts 304°
2026-05-06 21:12 51.14912 4.06033 23964 ft 266 kts 305°
2026-05-06 21:12 51.16060 4.03499 23992 ft 296 kts 305°
2026-05-06 21:12 51.17343 4.00666 23989 ft 326 kts 305°
2026-05-06 21:12 51.18728 3.97606 23961 ft 354 kts 305°
2026-05-06 21:13 51.20209 3.94330 23963 ft 374 kts 305°
2026-05-06 21:13 51.21773 3.90868 23973 ft 382 kts 304°
2026-05-06 21:13 51.23280 3.87409 23968 ft 377 kts 299°
2026-05-06 21:13 51.24321 3.83547 23959 ft 376 kts 289°
2026-05-06 21:14 51.25205 3.79499 23966 ft 395 kts 289°
2026-05-06 21:14 51.26129 3.75297 23958 ft 415 kts 289°
2026-05-06 21:14 51.27110 3.70837 23971 ft 431 kts 289°
2026-05-06 21:14 51.28107 3.66298 23973 ft 441 kts 289°
2026-05-06 21:15 51.29131 3.61626 23971 ft 443 kts 289°
2026-05-06 21:15 51.30143 3.57002 23973 ft 441 kts 289°
2026-05-06 21:15 51.31162 3.52335 23967 ft 440 kts 289°
2026-05-06 21:15 51.32169 3.47717 23964 ft 439 kts 289°
2026-05-06 21:16 51.33191 3.43014 23989 ft 439 kts 289°
2026-05-06 21:16 51.34203 3.38351 23975 ft 440 kts 289°
2026-05-06 21:16 51.35260 3.33700 23988 ft 440 kts 289°
2026-05-06 21:16 51.36359 3.29078 23971 ft 439 kts 289°
2026-05-06 21:17 51.37450 3.24477 23986 ft 439 kts 289°
2026-05-06 21:17 51.38545 3.19852 23991 ft 438 kts 289°
2026-05-06 21:17 51.39630 3.15260 23985 ft 439 kts 289°
2026-05-06 21:17 51.40707 3.10693 23976 ft 439 kts 289°
2026-05-06 21:18 51.41799 3.06052 24010 ft 438 kts 289°
2026-05-06 21:18 51.42889 3.01414 23982 ft 439 kts 289°
2026-05-06 21:18 51.43595 2.98409 23987 ft 439 kts 289°
2026-05-06 21:18 51.44686 2.93751 23989 ft 438 kts 290°
2026-05-06 21:19 51.45763 2.89139 23976 ft 439 kts 289°
2026-05-06 21:19 51.46847 2.84495 23975 ft 439 kts 290°
2026-05-06 21:19 51.47929 2.79844 23986 ft 439 kts 289°
2026-05-06 21:19 51.49004 2.75213 23988 ft 439 kts 290°
2026-05-06 21:20 51.50092 2.70521 23983 ft 439 kts 290°
2026-05-06 21:20 51.51156 2.65920 23993 ft 438 kts 289°
2026-05-06 21:20 51.52238 2.61230 23987 ft 439 kts 290°
2026-05-06 21:20 51.53303 2.56599 23991 ft 438 kts 290°
2026-05-06 21:21 51.54355 2.52022 23981 ft 438 kts 290°
2026-05-06 21:21 51.55421 2.47372 23987 ft 438 kts 290°
2026-05-06 21:21 51.56472 2.42781 23990 ft 438 kts 290°
2026-05-06 21:21 51.57536 2.38127 23995 ft 438 kts 290°
2026-05-06 21:22 51.58597 2.33472 23993 ft 438 kts 289°
2026-05-06 21:22 51.59648 2.28852 23993 ft 438 kts 289°
2026-05-06 21:22 51.60695 2.24237 23994 ft 438 kts 289°
2026-05-06 21:22 51.61748 2.19590 23997 ft 438 kts 289°
2026-05-06 21:23 51.62790 2.14977 23999 ft 438 kts 289°
2026-05-06 21:23 51.63833 2.10351 24002 ft 438 kts 289°
2026-05-06 21:23 51.64884 2.05678 24002 ft 437 kts 289°
2026-05-06 21:23 51.65931 2.01009 24003 ft 437 kts 289°
2026-05-06 21:24 51.66965 1.96388 24003 ft 437 kts 289°
2026-05-06 21:24 51.68003 1.91741 24002 ft 436 kts 289°
2026-05-06 21:24 51.69033 1.87115 24004 ft 436 kts 289°
2026-05-06 21:24 51.70065 1.82475 24005 ft 436 kts 289°
2026-05-06 21:25 51.71089 1.77857 24005 ft 436 kts 289°
2026-05-06 21:25 51.72103 1.73276 24005 ft 436 kts 289°
2026-05-06 21:25 51.73129 1.68631 24003 ft 436 kts 289°
2026-05-06 21:25 51.74121 1.63952 24006 ft 436 kts 285°
2026-05-06 21:26 51.74557 1.59134 24013 ft 436 kts 271°
2026-05-06 21:26 51.74330 1.54202 23999 ft 437 kts 264°
2026-05-06 21:26 51.74010 1.49331 24003 ft 437 kts 265°
2026-05-06 21:26 51.73697 1.44464 24004 ft 434 kts 265°
2026-05-06 21:27 51.73389 1.39716 23666 ft 421 kts 265°
2026-05-06 21:27 51.73085 1.35062 22723 ft 420 kts 265°
2026-05-06 21:27 51.72780 1.30407 21727 ft 420 kts 264°
2026-05-06 21:27 51.72474 1.25777 20837 ft 418 kts 264°
2026-05-06 21:28 51.72168 1.21188 20047 ft 413 kts 264°
2026-05-06 21:28 51.71859 1.16568 19244 ft 409 kts 264°
2026-05-06 21:28 51.71554 1.12027 18465 ft 404 kts 264°
2026-05-06 21:28 51.71252 1.07567 17724 ft 400 kts 264°
2026-05-06 21:29 51.70950 1.03131 16959 ft 397 kts 264°
2026-05-06 21:29 51.70650 0.98761 16190 ft 393 kts 265°
2026-05-06 21:29 51.70348 0.94356 15430 ft 390 kts 265°
2026-05-06 21:29 51.70052 0.90085 14720 ft 386 kts 265°
2026-05-06 21:30 51.69752 0.85780 14010 ft 382 kts 265°
2026-05-06 21:30 51.69456 0.81545 13178 ft 383 kts 265°
2026-05-06 21:30 51.69157 0.77283 12087 ft 388 kts 265°
2026-05-06 21:30 51.68851 0.72943 11089 ft 390 kts 265°
2026-05-06 21:31 51.68543 0.68618 10204 ft 387 kts 265°
2026-05-06 21:31 51.68236 0.64321 9370 ft 384 kts 264°
2026-05-06 21:31 51.67932 0.60075 8557 ft 381 kts 264°
2026-05-06 21:31 51.67628 0.55862 7809 ft 375 kts 264°
2026-05-06 21:32 51.67338 0.51877 7983 ft 337 kts 264°
2026-05-06 21:32 51.66814 0.44703 6952 ft 321 kts 264°
2026-05-06 21:32 51.66552 0.41138 6372 ft 320 kts 264°
2026-05-06 21:33 51.66291 0.37588 6106 ft 319 kts 264°
2026-05-06 21:33 51.66030 0.34067 6011 ft 318 kts 263°
2026-05-06 21:33 51.65767 0.30518 6020 ft 319 kts 263°
2026-05-06 21:33 51.65502 0.26981 6025 ft 320 kts 263°
2026-05-06 21:34 51.65235 0.23424 6044 ft 321 kts 263°
2026-05-06 21:34 51.64965 0.19832 6027 ft 321 kts 263°
2026-05-06 21:34 51.64698 0.16280 6024 ft 320 kts 263°
2026-05-06 21:34 51.64489 0.12766 6034 ft 321 kts 265°
2026-05-06 21:35 51.64292 0.09180 6031 ft 320 kts 265°
2026-05-06 21:35 51.64097 0.05666 6028 ft 320 kts 265°
2026-05-06 21:35 51.63900 0.02114 6038 ft 320 kts 265°
2026-05-06 21:35 51.63703 -0.01406 5996 ft 320 kts 265°
2026-05-06 21:36 51.63504 -0.04947 6037 ft 320 kts 265°
2026-05-06 21:36 51.63303 -0.08508 6034 ft 320 kts 265°
2026-05-06 21:36 51.63103 -0.12019 6034 ft 320 kts 265°
2026-05-06 21:36 51.62902 -0.15537 6032 ft 320 kts 265°
2026-05-06 21:37 51.62700 -0.19062 6035 ft 320 kts 265°
2026-05-06 21:37 51.62496 -0.22601 6035 ft 320 kts 264°
2026-05-06 21:37 51.62289 -0.26171 6018 ft 320 kts 265°
2026-05-06 21:37 51.62085 -0.29674 6029 ft 320 kts 265°
2026-05-06 21:38 51.61877 -0.33233 6030 ft 320 kts 265°
2026-05-06 21:38 51.61666 -0.36806 6031 ft 320 kts 265°
2026-05-06 21:38 51.61456 -0.40364 6000 ft 303 kts 265°
2026-05-06 21:38 51.61267 -0.43528 6049 ft 273 kts 265°
2026-05-06 21:39 51.61090 -0.46472 6036 ft 254 kts 266°
2026-05-06 21:39 51.60928 -0.49182 6012 ft 238 kts 266°
2026-05-06 21:39 51.60773 -0.51734 6007 ft 221 kts 266°
2026-05-06 21:39 51.60630 -0.54108 6005 ft 205 kts 266°
2026-05-06 21:40 51.60496 -0.56317 6001 ft 190 kts 266°
2026-05-06 21:40 51.60371 -0.58356 5997 ft 177 kts 266°
2026-05-06 21:40 51.60252 -0.60326 5984 ft 176 kts 266°
2026-05-06 21:40 51.60123 -0.62475 5974 ft 206 kts 266°
2026-05-06 21:41 51.59981 -0.64826 5942 ft 218 kts 266°
2026-05-06 21:41 51.59833 -0.67216 6003 ft 214 kts 265°
2026-05-06 21:41 51.59681 -0.69678 5992 ft 219 kts 265°
2026-05-06 21:41 51.59528 -0.72146 5985 ft 218 kts 265°
2026-05-06 21:42 51.59375 -0.74598 6017 ft 221 kts 265°
2026-05-06 21:42 51.59175 -0.77024 5962 ft 216 kts 254°
2026-05-06 21:42 51.58363 -0.79005 5848 ft 212 kts 216°
2026-05-06 21:42 51.56961 -0.79712 5455 ft 216 kts 178°
2026-05-06 21:43 51.55453 -0.79609 5146 ft 217 kts 176°
2026-05-06 21:43 51.53943 -0.79516 4835 ft 216 kts 176°
2026-05-06 21:43 51.52446 -0.79429 4542 ft 215 kts 177°
2026-05-06 21:43 51.50931 -0.79341 4211 ft 216 kts 177°
2026-05-06 21:44 51.49441 -0.79200 3893 ft 214 kts 169°
2026-05-06 21:44 51.48047 -0.78362 3568 ft 211 kts 144°
2026-05-06 21:44 51.47005 -0.76750 3298 ft 207 kts 121°
2026-05-06 21:44 51.46467 -0.74673 3037 ft 200 kts 95°
2026-05-06 21:45 51.46416 -0.72477 2976 ft 194 kts 89°
2026-05-06 21:45 51.46391 -0.70293 2785 ft 200 kts 89°
2026-05-06 21:45 51.46387 -0.68086 2523 ft 196 kts 88°
2026-05-06 21:45 51.46394 -0.65893 2259 ft 196 kts 87°
2026-05-06 21:46 51.46404 -0.63715 1999 ft 194 kts 87°
2026-05-06 21:46 51.46412 -0.61660 1977 ft 162 kts 87°
2026-05-06 21:46 51.46417 -0.59974 1630 ft 150 kts 86°
2026-05-06 21:46 51.46425 -0.58416 1351 ft 127 kts 86°
2026-05-06 21:47 51.46431 -0.57055 1198 ft 121 kts 85°
2026-05-06 21:47 51.46440 -0.55749 997 ft 115 kts 86°
2026-05-06 21:47 51.46448 -0.54456 872 ft 116 kts 85°
2026-05-06 21:47 51.46456 -0.53149 735 ft 118 kts 86°
2026-05-06 21:48 51.46468 -0.51852 544 ft 109 kts 85°
2026-05-06 21:48 51.46470 -0.50561 402 ft 126 kts 88°
2026-05-06 21:48 51.46475 -0.49155 282 ft 123 kts 86°
2026-05-06 21:48 51.46481 -0.47863 96 ft 105 kts 87°
2026-05-06 21:49 51.46484 -0.46870 77 ft 63 kts 90°
2026-05-06 21:49 51.46486 -0.46268 83 ft 53 kts 91°
2026-05-06 21:49 51.46458 -0.45760 81 ft 28 kts 128°
2026-05-06 21:49 51.46327 -0.45601 80 ft 13 kts 145°
2026-05-06 21:50 51.46240 -0.45618 80 ft 15 kts 240°
2026-05-06 21:50 51.46243 -0.45676 80 ft 0 kts 288°